Location: Czekanka
(50.4925°N, 19.2643°E)
Time: 11:41:55
(UTC+00:00)

CZ-4C R/B - Pass Details

Date: 15 June 2024
Orbit: 526 x 1467 km, 63.4° (Epoch: 15 July)

Event Time Altitude Azimuth Distance (km) Brightness Sun altitude
Rises 00:58:35 0° 272° (W) 3,072 4.8 -10.4°
Reaches altitude 10° 01:01:01 10° 284° (WNW) 2,279 4.3 -10.2°
Maximum altitude 01:05:35 29° 345° (NNW) 1,561 4.1 -9.8°
Drops below altitude 10° 01:11:12 10° 43° (NE) 2,836 6.5 -9.3°
Sets 01:14:35 0° 54° (NE) 3,968 7.2 -9.0°
